Skip Page Navigation
NASA JPL Caltech
NASA Logo - Jet Propulsion Laboratory + View the NASA Portal
+ Center for Near-Earth Object Studies
JPL Home Earth Solar System Stars & Galaxies Technology
JPL Solar System Dynamics
BODIES ORBITS EPHEMERIDES TOOLS PHYSICAL DATA DISCOVERY FAQ SITE MAP
JPL Small-Body Database Browser
Search: [ help ]  
134926 (2000 YS117)
Classification: Main-belt Asteroid          SPK-ID: 2134926
Ephemeris | Orbit Diagram | Orbital Elements | Mission Design | Physical Parameters | Discovery Circumstances ]

[ hide orbit diagram ]

For accurate long-term ephemerides, please instead use our Horizons system.This orbit viewer was implemented using two-body methods, and hence should not be used for determining accurate long-term trajectories (over several years or decades) or planetary encounter circumstances.


[ revert to old Java-based viewer ]

Orbital Elements at Epoch 2459000.5 (2020-May-31.0) TDB
Reference: JPL 14 (heliocentric ecliptic J2000)
 Element Value Uncertainty (1-sigma)   Units 
e .07273633402149494 3.8476e-08  
a 2.318090104664649 1.0433e-08 au
q 2.149480728519839 8.8118e-08 au
i 7.10275026698834 5.1265e-06 deg
node 316.987977896223 2.8011e-05 deg
peri 129.0018137830155 4.8407e-05 deg
M 211.5998973986732 4.0449e-05 deg
tp 2459531.904951723032
(2021-Nov-13.40495172)
0.00014714 TDB
period 1289.121633117935
3.53
8.7027e-06
2.383e-08
d
yr
n .2792599167925573 1.8853e-09 deg/d
Q 2.486699480809459 1.1192e-08 au
  Orbit Determination Parameters
   # obs. used (total)      597  
   data-arc span      7735 days (21.18 yr)  
   first obs. used      1999-08-17  
   last obs. used      2020-10-20  
   planetary ephem.      DE431  
   SB-pert. ephem.      SB431-N16  
   condition code      0  
   norm. resid. RMS      .52307  
   source      ORB  
   producer      Otto Matic  
   solution date      2020-Nov-12 16:05:20  

Additional Information
 Earth MOID = 1.17382 au 
 Jupiter MOID = 2.63543 au 
 T_jup = 3.566 
[ show covariance matrix ]

Ephemeris | Orbit Diagram | Orbital Elements | Mission Design | Physical Parameters | Discovery Circumstances ]

Physical Parameter Table
Parameter Symbol Value Units Sigma Reference Notes
absolute magnitude H 16.3   n/a MPO436660  

134926 (2000 YS117)          Discovered 2000-Dec-30 by LINEAR at Socorro
Reference: 20060907/Numbers.arcLast Updated: 2006-09-10
Ephemeris | Orbit Diagram | Orbital Elements | Mission Design | Physical Parameters | Discovery Circumstances ]
ABOUT SSD CREDITS/AWARDS PRIVACY/COPYRIGHT GLOSSARY LINKS
FirstGov 2020-Nov-27 13:00 UT
(server date/time)  
NASA Home Page
Site Manager:   Ryan S. Park
Webmaster  Alan B. Chamberlin